SCP
0 0 -0 -0 -0 -0 -0 -0 -0 -0 -0 -0 -0 0 0 0 0 0 0 0 0 0 0 0 0 0 0 0 0 0 0 0
0 0 -0 -0 -0 -0 -0 -0 -0 -0 0 0 0 0 0 0 0 0 0 0 0 0 0 0 0 0 0 0 0 0 0 0
0 -0 0 -0 -0 -0 -0 0 0 0 0 0 0 0 0 0 0 0 0 0 0 0 0 0 0 0 0 0 0 0 0 0
0 0 0 0 0 0 0 0 0 0 0 0 0 0 0 0 0 0 0 0 0 0 0 0 0 0 0 0 0 0 0 0
0 0 1 1 0 0 0 0 0 0 0 0 0 0 0 0 0 0 0 0 0 0 0 0 0 0 0 0 0 0 0 0
0 0 0 0 0 0 0 0 0 0 0 0 0 0 0 0 0 0 0 0 0 0 0 0 0 0 0 0 0 0 0 0
0 0 0 0 0 0 0 0 0 0 0 0 0 0 0 0 0 0 0 0 0 0 0 0 0 0 0 0 0 0 0 0
0 0 0 0 0 0 0 0 0 0 0 0 0 0 0 0 0 0 0 0 0 0 0 0 0 0 0 0 0 0 0 0
0 0 0 0 0 0 0 0 0 0 0 0 0 0 0 0 0 0 0 0 0 0 0 0 0 0 0 0 0 0 0 0
0 0 0 0 0 0 0 0 0 0 0 0 0 0 0 0 0 0 0 0 0 0 0 0 0 0 0 0 0 0 0 0
0 0 0 0 0 0 0 0 0 0 0 0 0 0 0 0 0 0 0 0 0 0 0 0 0 0 0 0 0 0 0 0
0 0 -0 0 0 -0 0 0 0 0 0 0 0 0 0 0 0 0 0 0 0 0 0 0 -0 0 0 0 0 0 0 0
0 0 0 0 0 0 0 0 0 0 0 0 0 0 0 0 0 0 0 0 0 0 0 0 0 0 0 0 0 0 0 0
0 0 0 0 0 0 0 0 0 0 0 0 0 0 0 0 0 0 0 0 0 0 0 0 0 0 0 0 0 0 0 0
1 0 0 0 0 0 0 0 1 1 0 0 0 0 0 0 0 0 0 0 0 0 0 0 0 0 0 0 0 0 0 0
1 1 1 1 0 0 0 1 1 1 0 0 0 0 0 0 0 0 0 0 0 0 0 0 0 0 0 0 0 0 0 0
0 1 1 1 1 1 0 1 2 1 0 0 -0 0 -0 0 0 0 0 0 0 0 0 0 0 0 0 0 0 0 0 0
0 0 1 1 2 1 1 0 0 1 0 0 0 0 -0 0 0 0 0 0 0 0 0 0 0 0 0 0 0 0 0 0
0 0 1 2 2 2 1 1 1 2 1 0 0 -0 -0 -0 -0 -0 -0 -0 0 0 0 0 0 0 0 0 0 0 0 0
Wind_Speed_500mb
53 51 53 51 46 41 38 37 36 33 31 28 26 25 25 23 22 21 20 19 20 21 23 27 26 21 17 12 11 17 21 23
51 50 51 48 46 43 42 39 35 33 31 28 24 22 21 20 19 17 16 16 16 17 19 24 25 22 19 13 5 10 15 19
46 47 48 49 46 44 42 42 40 35 30 27 24 20 18 17 17 16 15 14 13 14 16 20 24 24 20 15 5 6 11 13
42 44 46 50 49 47 45 43 40 36 31 27 23 21 19 18 16 16 15 15 14 14 15 18 22 25 25 20 12 2 4 9
43 40 42 45 47 46 44 43 41 38 34 29 24 22 20 18 16 14 12 12 12 12 13 17 21 24 26 25 19 8 1 3
45 46 46 47 46 48 48 48 43 37 35 32 29 25 22 19 18 17 15 13 12 12 13 15 19 23 24 26 25 15 7 3
44 50 48 48 49 48 46 45 41 39 38 34 30 27 25 23 21 20 20 18 16 15 15 15 18 22 24 24 25 23 13 8
47 51 51 52 49 49 44 42 40 43 38 35 28 27 26 25 26 25 25 22 20 18 17 18 19 22 24 24 25 26 24 15
50 48 53 51 50 47 44 43 40 38 36 35 31 28 30 31 28 28 26 21 17 14 17 21 22 22 26 28 27 28 30 25
50 48 56 53 54 51 47 42 44 39 37 34 31 29 30 30 31 32 29 25 21 17 11 17 25 24 24 27 26 27 28 30
62 50 59 61 59 57 50 41 47 39 35 35 32 30 29 32 30 29 29 32 29 23 15 14 16 21 19 27 28 29 29 32
49 58 68 64 67 66 54 34 50 39 33 37 33 33 29 31 25 22 23 31 37 28 22 19 19 22 24 23 25 26 30 34
41 49 61 61 65 66 58 40 47 39 40 41 39 36 34 35 43 33 32 31 35 38 23 26 25 26 30 32 31 34 37 30
40 45 57 67 65 60 59 46 47 45 43 45 44 41 38 37 43 45 38 36 41 34 34 29 28 28 32 35 30 28 26 27
48 51 54 55 61 62 65 53 45 46 45 44 42 36 33 37 42 47 48 35 40 40 34 33 23 24 25 23 26 31 27 37
64 64 63 65 64 68 72 62 57 53 45 41 37 34 28 25 31 43 43 37 33 41 35 30 22 25 27 29 29 33 34 32
80 80 74 72 72 78 77 71 63 58 45 34 23 24 26 21 24 36 35 46 37 29 37 29 27 29 28 34 28 23 24 28
88 88 86 82 84 83 83 78 69 55 46 38 34 31 25 24 17 27 27 27 27 26 20 22 25 22 15 10 9 8 7 6
92 96 96 90 86 83 86 82 78 68 60 50 37 39 32 29 16 17 27 25 26 25 22 17 14 11 10 9 10 10 12 15
Wind_Direction_500mb
170 173 174 175 176 176 175 172 170 165 158 154 150 147 143 140 137 132 128 128 127 127 134 140 149 148 145 127 82 59 56 55
171 172 175 180 180 180 176 177 177 173 166 161 158 153 151 146 144 142 137 133 132 128 135 145 154 161 159 156 118 54 48 40
173 171 176 184 186 187 184 181 182 182 177 170 164 165 163 159 156 156 152 147 144 139 142 151 160 170 172 177 205 50 50 44
180 175 182 187 187 191 192 186 185 186 185 183 178 178 179 178 175 172 171 169 165 159 155 160 169 174 182 194 207 214 40 46
181 186 190 189 190 194 194 191 190 190 191 193 193 194 194 191 189 190 194 189 182 180 175 173 175 180 186 201 211 239 207 45
185 190 194 189 190 193 196 194 193 196 198 201 205 208 209 207 205 202 200 207 210 206 199 190 187 189 191 204 219 225 226 244
189 196 194 194 193 194 194 195 194 199 204 209 214 218 221 217 213 212 210 208 215 220 221 212 203 200 199 205 221 229 224 247
197 201 199 199 198 196 192 196 196 203 204 208 214 220 222 225 222 217 221 218 217 219 228 225 219 213 209 205 221 233 240 245
207 210 206 204 202 198 196 197 201 208 207 209 212 217 221 226 225 223 216 202 209 210 229 234 230 220 215 211 215 232 242 256
208 217 207 207 207 203 199 202 207 206 212 213 215 223 227 231 234 227 218 214 200 204 230 242 236 236 225 221 219 239 251 267
222 227 209 209 206 204 197 204 209 214 214 210 223 228 235 237 233 231 229 228 214 214 229 264 258 233 228 227 221 231 253 266
225 230 216 213 207 207 203 214 213 221 222 224 224 229 238 233 225 236 252 239 228 223 231 235 236 228 224 230 234 248 261 275
192 196 214 213 208 212 219 232 225 230 229 228 230 236 240 233 227 261 254 259 246 229 222 228 236 244 240 245 254 255 259 272
213 201 209 212 213 212 219 231 225 227 228 225 232 240 228 235 237 254 251 263 244 237 234 235 244 247 253 259 277 271 277 283
221 203 203 212 210 214 217 224 219 220 220 220 221 232 241 246 250 253 259 250 229 241 237 228 243 248 258 269 275 272 273 287
227 226 215 205 205 205 213 212 212 212 210 201 210 224 234 239 244 250 246 219 253 237 221 231 243 253 254 261 272 282 296 293
227 222 214 212 206 201 208 213 210 208 209 204 205 221 212 223 239 240 242 234 249 221 228 241 264 268 276 278 292 295 296 293
222 221 221 216 209 202 204 208 209 208 204 196 194 204 205 216 224 226 214 209 213 201 211 242 258 260 266 281 322 326 327 330
230 224 222 216 211 206 206 208 210 207 194 190 217 199 206 200 185 199 201 201 192 195 195 207 218 241 257 275 290 302 314 320
Wind_Speed_850mb
53 51 53 51 46 41 38 37 36 33 31 28 26 25 25 23 22 21 20 19 20 21 23 27 26 21 17 12 11 17 21 23
51 50 51 48 46 43 42 39 35 33 31 28 24 22 21 20 19 17 16 16 16 17 19 24 25 22 19 13 5 10 15 19
46 47 48 49 46 44 42 42 40 35 30 27 24 20 18 17 17 16 15 14 13 14 16 20 24 24 20 15 5 6 11 13
42 44 46 50 49 47 45 43 40 36 31 27 23 21 19 18 16 16 15 15 14 14 15 18 22 25 25 20 12 2 4 9
43 40 42 45 47 46 44 43 41 38 34 29 24 22 20 18 16 14 12 12 12 12 13 17 21 24 26 25 19 8 1 3
45 46 46 47 46 48 48 48 43 37 35 32 29 25 22 19 18 17 15 13 12 12 13 15 19 23 24 26 25 15 7 3
44 50 48 48 49 48 46 45 41 39 38 34 30 27 25 23 21 20 20 18 16 15 15 15 18 22 24 24 25 23 13 8
47 51 51 52 49 49 44 42 40 43 38 35 28 27 26 25 26 25 25 22 20 18 17 18 19 22 24 24 25 26 24 15
50 48 53 51 50 47 44 43 40 38 36 35 31 28 30 31 28 28 26 21 17 14 17 21 22 22 26 28 27 28 30 25
50 48 56 53 54 51 47 42 44 39 37 34 31 29 30 30 31 32 29 25 21 17 11 17 25 24 24 27 26 27 28 30
62 50 59 61 59 57 50 41 47 39 35 35 32 30 29 32 30 29 29 32 29 23 15 14 16 21 19 27 28 29 29 32
49 58 68 64 67 66 54 34 50 39 33 37 33 33 29 31 25 22 23 31 37 28 22 19 19 22 24 23 25 26 30 34
41 49 61 61 65 66 58 40 47 39 40 41 39 36 34 35 43 33 32 31 35 38 23 26 25 26 30 32 31 34 37 30
40 45 57 67 65 60 59 46 47 45 43 45 44 41 38 37 43 45 38 36 41 34 34 29 28 28 32 35 30 28 26 27
48 51 54 55 61 62 65 53 45 46 45 44 42 36 33 37 42 47 48 35 40 40 34 33 23 24 25 23 26 31 27 37
64 64 63 65 64 68 72 62 57 53 45 41 37 34 28 25 31 43 43 37 33 41 35 30 22 25 27 29 29 33 34 32
80 80 74 72 72 78 77 71 63 58 45 34 23 24 26 21 24 36 35 46 37 29 37 29 27 29 28 34 28 23 24 28
88 88 86 82 84 83 83 78 69 55 46 38 34 31 25 24 17 27 27 27 27 26 20 22 25 22 15 10 9 8 7 6
92 96 96 90 86 83 86 82 78 68 60 50 37 39 32 29 16 17 27 25 26 25 22 17 14 11 10 9 10 10 12 15
Wind_Direction_850mb
170 173 174 175 176 176 175 172 170 165 158 154 150 147 143 140 137 132 128 128 127 127 134 140 149 148 145 127 82 59 56 55
171 172 175 180 180 180 176 177 177 173 166 161 158 153 151 146 144 142 137 133 132 128 135 145 154 161 159 156 118 54 48 40
173 171 176 184 186 187 184 181 182 182 177 170 164 165 163 159 156 156 152 147 144 139 142 151 160 170 172 177 205 50 50 44
180 175 182 187 187 191 192 186 185 186 185 183 178 178 179 178 175 172 171 169 165 159 155 160 169 174 182 194 207 214 40 46
181 186 190 189 190 194 194 191 190 190 191 193 193 194 194 191 189 190 194 189 182 180 175 173 175 180 186 201 211 239 207 45
185 190 194 189 190 193 196 194 193 196 198 201 205 208 209 207 205 202 200 207 210 206 199 190 187 189 191 204 219 225 226 244
189 196 194 194 193 194 194 195 194 199 204 209 214 218 221 217 213 212 210 208 215 220 221 212 203 200 199 205 221 229 224 247
197 201 199 199 198 196 192 196 196 203 204 208 214 220 222 225 222 217 221 218 217 219 228 225 219 213 209 205 221 233 240 245
207 210 206 204 202 198 196 197 201 208 207 209 212 217 221 226 225 223 216 202 209 210 229 234 230 220 215 211 215 232 242 256
208 217 207 207 207 203 199 202 207 206 212 213 215 223 227 231 234 227 218 214 200 204 230 242 236 236 225 221 219 239 251 267
222 227 209 209 206 204 197 204 209 214 214 210 223 228 235 237 233 231 229 228 214 214 229 264 258 233 228 227 221 231 253 266
225 230 216 213 207 207 203 214 213 221 222 224 224 229 238 233 225 236 252 239 228 223 231 235 236 228 224 230 234 248 261 275
192 196 214 213 208 212 219 232 225 230 229 228 230 236 240 233 227 261 254 259 246 229 222 228 236 244 240 245 254 255 259 272
213 201 209 212 213 212 219 231 225 227 228 225 232 240 228 235 237 254 251 263 244 237 234 235 244 247 253 259 277 271 277 283
221 203 203 212 210 214 217 224 219 220 220 220 221 232 241 246 250 253 259 250 229 241 237 228 243 248 258 269 275 272 273 287
227 226 215 205 205 205 213 212 212 212 210 201 210 224 234 239 244 250 246 219 253 237 221 231 243 253 254 261 272 282 296 293
227 222 214 212 206 201 208 213 210 208 209 204 205 221 212 223 239 240 242 234 249 221 228 241 264 268 276 278 292 295 296 293
222 221 221 216 209 202 204 208 209 208 204 196 194 204 205 216 224 226 214 209 213 201 211 242 258 260 266 281 322 326 327 330
230 224 222 216 211 206 206 208 210 207 194 190 217 199 206 200 185 199 201 201 192 195 195 207 218 241 257 275 290 302 314 320